| time (UTC) | temp C | wind direction | speed KPH | gust KPH | rain 1hr cm | rain 24hr cm | rain mn cm | humidity % | barometer mb |
| 20260507130100 | 6 | 0.0 | 0.0 | 0.00 | 1.68 | 0.03 | 64 | 1007.7 | |
| 20260507124557 | 6 | 0.0 | 0.0 | 0.03 | 1.68 | 0.03 | 66 | 1007.6 | |
| 20260507123111 | 6 | 0.0 | 0.0 | 0.03 | 1.68 | 0.03 | 66 | 1007.5 | |
| 20260507121557 | 5 | 0.0 | 0.0 | 0.03 | 1.68 | 0.03 | 69 | 1007.6 | |
| 20260507120057 | 5 | 0.0 | 0.0 | 0.03 | 1.68 | 0.03 | 70 | 1007.5 | |
| 20260507114559 | 5 | 0.0 | 0.0 | 0.00 | 1.65 | 0.00 | 74 | 1007.3 | |
| 20260507113058 | 3 | 0.0 | 0.0 | 0.00 | 1.65 | 0.00 | 79 | 1007.1 | |
| 20260507111557 | 3 | 0.0 | 0.0 | 0.00 | 1.65 | 0.00 | 86 | 1007.4 | |
| 20260507110057 | 3 | 0.0 | 0.0 | 0.00 | 1.65 | 0.00 | 87 | 1007.3 | |
| 20260507104604 | 3 | 0.0 | 0.0 | 0.00 | 1.65 | 0.00 | 87 | 1007.2 | |
| 20260507103058 | 3 | 0.0 | 0.0 | 0.00 | 1.65 | 0.00 | 90 | 1006.8 | |
| 20260507101553 | 3 | 0.0 | 0.0 | 0.00 | 1.65 | 0.00 | 94 | 1006.8 | |
| 20260507100100 | 3 | 0.0 | 0.0 | 0.00 | 1.65 | 0.00 | 93 | 1006.9 | |
| 20260507094554 | 3 | 0.0 | 0.0 | 0.00 | 1.65 | 0.00 | 91 | 1006.9 | |
| 20260507093054 | 3 | 0.0 | 0.0 | 0.00 | 1.65 | 0.00 | 89 | 1007.0 | |
| 20260507091557 | 3 | 0.0 | 0.0 | 0.00 | 1.65 | 0.00 | 89 | 1007.1 | |
| 20260507090100 | 3 | 0.0 | 0.0 | 0.00 | 1.65 | 0.00 | 89 | 1007.1 | |
| 20260507084555 | 3 | 0.0 | 0.0 | 0.00 | 1.65 | 0.00 | 89 | 1007.4 | |
| 20260507083057 | 4 | 0.0 | 0.0 | 0.00 | 1.65 | 0.00 | 91 | 1007.5 | |
| 20260507081557 | 4 | 0.0 | 0.0 | 0.00 | 1.65 | 0.00 | 90 | 1007.1 | |
| 20260507080112 | 4 | 0.0 | 0.0 | 0.00 | 1.65 | 0.00 | 90 | 1006.9 | |
| 20260507074558 | 4 | 0.0 | 0.0 | 0.00 | 1.65 | 0.00 | 91 | 1007.1 | |
| 20260507073054 | 4 | 0.0 | 0.0 | 0.00 | 1.65 | 0.00 | 90 | 1007.3 | |
| 20260507071554 | 4 | 0.0 | 0.0 | 0.00 | 1.65 | 0.00 | 91 | 1007.1 | |
| 20260507070104 | 4 | 0.0 | 0.0 | 0.00 | 1.65 | 0.00 | 92 | 1007.1 | |
| 20260507064634 | 4 | 0.0 | 0.0 | 0.00 | 1.65 | 0.00 | 92 | 1007.3 | |
| 20260507063109 | 4 | 0.0 | 0.0 | 0.00 | 1.65 | 0.00 | 92 | 1006.6 | |
| 20260507061555 | 4 | 0.0 | 0.0 | 0.00 | 1.65 | 0.00 | 91 | 1006.7 | |
| 20260507060111 | 4 | 0.0 | 0.0 | 0.00 | 1.65 | 0.00 | 91 | 1006.8 | |
| 20260507054602 | 4 | 0.0 | 0.0 | 0.00 | 1.65 | 0.00 | 90 | 1007.4 | |
| 20260507053107 | 4 | 0.0 | 0.0 | 0.00 | 1.65 | 0.00 | 91 | 1007.2 | |
| 20260507051605 | 4 | 0.0 | 0.0 | 0.00 | 1.65 | 0.00 | 91 | 1007.4 | |
| 20260507050057 | 5 | 0.0 | 0.0 | 0.00 | 1.65 | 0.00 | 91 | 1007.6 | |
| 20260507044557 | 5 | 0.0 | 0.0 | 0.00 | 1.65 | 0.00 | 91 | 1007.4 | |
| 20260507043058 | 5 | 0.0 | 0.0 | 0.00 | 1.65 | 0.00 | 91 | 1007.2 | |
| 20260507041554 | 5 | 0.0 | 0.0 | 0.00 | 1.65 | 0.00 | 92 | 1007.1 | |
| 20260507040054 | 5 | 0.0 | 0.0 | 0.00 | 1.65 | 0.00 | 92 | 1007.0 | |
| 20260507034556 | 5 | 0.0 | 0.0 | 0.00 | 1.65 | 1.65 | 92 | 1007.3 | |
| 20260507033055 | 5 | 0.0 | 0.0 | 0.00 | 1.65 | 1.65 | 91 | 1007.1 | |
| 20260507031556 | 5 | 0.0 | 0.0 | 0.00 | 1.65 | 1.65 | 92 | 1007.2 | |
| 20260507030056 | 6 | 0.0 | 0.0 | 0.00 | 1.65 | 1.65 | 92 | 1007.0 | |
| 20260507024558 | 6 | 0.0 | 0.0 | 0.00 | 1.68 | 1.65 | 92 | 1007.3 | |
| 20260507023056 | 6 | 0.0 | 0.0 | 0.03 | 1.68 | 1.65 | 91 | 1007.1 | |
| 20260507021557 | 6 | 0.0 | 0.0 | 0.03 | 1.68 | 1.65 | 92 | 1006.9 | |
| 20260507020115 | 6 | 0.0 | 0.0 | 0.03 | 1.68 | 1.65 | 92 | 1007.0 | |
| 20260507014600 | 7 | 0.0 | 0.0 | 0.05 | 1.68 | 1.65 | 92 | 1007.3 | |
| 20260507013055 | 7 | 0.0 | 0.0 | 0.03 | 1.65 | 1.63 | 92 | 1006.9 | |
| 20260507011556 | 7 | 0.0 | 0.0 | 0.03 | 1.65 | 1.63 | 92 | 1006.8 | |
| 20260507010111 | 7 | 0.0 | 0.0 | 0.05 | 1.65 | 1.63 | 92 | 1006.6 | |
| 20260507004557 | 8 | 0.0 | 0.0 | 0.03 | 1.63 | 1.60 | 91 | 1006.4 | |
| 20260507003059 | 9 | 0.0 | 0.0 | 0.03 | 1.63 | 1.60 | 92 | 1006.1 | |
| 20260507001611 | 10 | 0.0 | 0.0 | 0.05 | 1.63 | 1.60 | 93 | 1005.8 | |
| 20260506234601 | 10 | 0.0 | 0.0 | 0.05 | 1.60 | 1.57 | 94 | 1005.4 | |
| 20260506233102 | 11 | 0.0 | 0.0 | 0.08 | 1.60 | 1.57 | 93 | 1005.4 | |
| 20260506231612 | 11 | 0.0 | 0.0 | 0.10 | 1.57 | 1.55 | 93 | 1005.0 | |
| 20260506230131 | 12 | 0.0 | 0.0 | 0.08 | 1.55 | 1.52 | 93 | 1004.7 | |
| 20260506224605 | 12 | 0.0 | 0.0 | 0.08 | 1.55 | 1.52 | 94 | 1004.5 | |
| 20260506223100 | 12 | 0.0 | 0.0 | 0.05 | 1.52 | 1.47 | 94 | 1004.4 | |
| 20260506221624 | 13 | 0.0 | 0.0 | 0.05 | 1.47 | 1.45 | 94 | 1004.3 | |
| 20260506220129 | 13 | 0.0 | 0.0 | 0.08 | 1.47 | 1.45 | 93 | 1004.3 | |
| 20260506214555 | 13 | 0.0 | 0.0 | 0.10 | 1.47 | 1.45 | 93 | 1004.4 | |
| 20260506213109 | 13 | 0.0 | 0.0 | 0.18 | 1.47 | 1.45 | 93 | 1004.3 | |
| 20260506211600 | 13 | 0.0 | 0.0 | 0.15 | 1.42 | 1.40 | 94 | 1004.3 | |
| 20260506210105 | 13 | 0.0 | 0.0 | 0.15 | 1.40 | 1.37 | 94 | 1004.5 | |
| 20260506204606 | 13 | 0.0 | 0.0 | 0.15 | 1.37 | 1.32 | 93 | 1004.5 | |
| 20260506203057 | 13 | 0.0 | 0.0 | 0.10 | 1.30 | 1.27 | 93 | 1004.5 | |
| 20260506201602 | 13 | 0.0 | 0.0 | 0.10 | 1.27 | 1.24 | 93 | 1004.5 | |
| 20260506200058 | 13 | 0.0 | 0.0 | 0.10 | 1.24 | 1.22 | 94 | 1004.7 | |
| 20260506194600 | 13 | 0.0 | 0.0 | 0.18 | 1.22 | 1.19 | 94 | 1004.6 | |
| 20260506193059 | 12 | 0.0 | 0.0 | 0.20 | 1.19 | 1.17 | 95 | 1004.9 | |
| 20260506191604 | 12 | 0.0 | 0.0 | 0.23 | 1.17 | 1.14 | 95 | 1004.9 | |
| 20260506190057 | 12 | 0.0 | 0.0 | 0.25 | 1.14 | 1.12 | 96 | 1005.1 | |
| 20260506184634 | 12 | 0.0 | 0.0 | 0.30 | 1.04 | 1.02 | 96 | 1005.3 | |
| 20260506183102 | 12 | 0.0 | 0.0 | 0.38 | 0.99 | 0.97 | 96 | 1005.2 | |
| 20260506181559 | 12 | 0.0 | 0.0 | 0.41 | 0.94 | 0.91 | 96 | 1005.5 | |
| 20260506180057 | 12 | 0.0 | 0.0 | 0.43 | 0.89 | 0.86 | 95 | 1005.9 | |
| 20260506174556 | 12 | 0.0 | 0.0 | 0.36 | 0.74 | 0.71 | 95 | 1006.0 | |
| 20260506173059 | 12 | 0.0 | 0.0 | 0.33 | 0.61 | 0.58 | 94 | 1006.4 | |
| 20260506171607 | 12 | 0.0 | 0.0 | 0.33 | 0.53 | 0.51 | 94 | 1006.6 | |
| 20260506170059 | 12 | 0.0 | 0.0 | 0.30 | 0.46 | 0.43 | 94 | 1006.8 | |
| 20260506164557 | 12 | 0.0 | 0.0 | 0.25 | 0.38 | 0.36 | 94 | 1007.1 | |
| 20260506163106 | 12 | 0.0 | 0.0 | 0.18 | 0.28 | 0.25 | 94 | 1007.0 | |
| 20260506161557 | 13 | 0.0 | 0.0 | 0.13 | 0.20 | 0.18 | 94 | 1007.1 | |
| 20260506160109 | 13 | 0.0 | 0.0 | 0.10 | 0.15 | 0.13 | 93 | 1007.1 | |
| 20260506154559 | 13 | 0.0 | 0.0 | 0.10 | 0.13 | 0.10 | 92 | 1007.3 | |
| 20260506153055 | 13 | 0.0 | 0.0 | 0.08 | 0.10 | 0.08 | 91 | 1007.5 | |
| 20260506151559 | 13 | 0.0 | 0.0 | 0.05 | 0.08 | 0.05 | 89 | 1007.8 | |
| 20260506144603 | 14 | 0.0 | 0.0 | 0.00 | 0.03 | 0.00 | 84 | 1008.2 | |
| 20260506143058 | 15 | 0.0 | 0.0 | 0.00 | 0.03 | 0.00 | 81 | 1008.1 | |
| 20260506141555 | 14 | 0.0 | 0.0 | 0.00 | 0.03 | 0.00 | 83 | 1008.1 | |
| 20260506140104 | 14 | 0.0 | 0.0 | 0.00 | 0.03 | 0.00 | 83 | 1007.9 | |
| 20260506134601 | 14 | 0.0 | 0.0 | 0.00 | 0.03 | 0.00 | 83 | 1007.7 | |
| 20260506133057 | 13 | 0.0 | 0.0 | 0.00 | 0.03 | 0.00 | 85 | 1007.7 | |
| 20260506131607 | 13 | 0.0 | 0.0 | 0.00 | 0.03 | 0.00 | 85 | 1007.8 |